Location: Star Dogged Moon Observatory
(29.7756°N, 82.0783°W)
Time: 13:32:00
(UTC-04:00)

Amateur Radio Satellites - All Passes

Search period start: 25 July 2014 13:02
Search period end: 26 July 2014 13:02
Location: Star Dogged Moon Observatory, 29.7756°N, 82.0783°W

Satellite Date Start Highest point End Downlink Frequencies (MHz)
Time Altitude Azimuth
RS-15 25 Jul 13:09:05 13:18:04 28° 105° (ESE) 13:26:46 29.354 - 29.394 USB, Beacon 29.352 USB
Sapphire 25 Jul 13:20:58 13:24:52 21° 254° (WSW) 13:28:46 437.095 MHz 1200 baud AX-25 AFSK
Oscar 16 25 Jul 13:21:18 13:24:51 19° 68° (ENE) 13:28:23 437.025 USB, Beacon 2401.1428
ITAMSAT 1 25 Jul 13:36:30 13:37:33 11° 65° (ENE) 13:38:37 435.822 SSB
AO-Echo 25 Jul 13:42:45 13:45:16 14° 66° (ENE) 13:47:48 ?
AO-27 25 Jul 13:52:11 13:55:29 17° 67° (ENE) 13:58:47 436.795 MHz FM
Uribyol 2 25 Jul 13:54:16 13:57:49 19° 68° (ENE) 14:01:22 436.500 FM
SO-50 25 Jul 14:23:11 14:27:22 40° 301° (WNW) 14:31:37 436.795 FM
Oscar 19 25 Jul 14:31:01 14:36:07 80° 257° (WSW) 14:41:14 437.125 CW, 437.150 USB
JAS-1B 25 Jul 14:40:11 14:47:48 40° 66° (ENE) 14:56:24 435.800 - 435.900 CW/SSB
Oscar 16 25 Jul 14:59:10 15:03:52 37° 261° (W) 15:08:36 437.025 USB, Beacon 2401.1428
UOSAT-12 25 Jul 15:06:05 15:10:04 31° 111° (ESE) 15:14:08 437.025 FM, 437.400 FM
TMSAT-1 25 Jul 15:08:42 15:13:06 27° 70° (ENE) 15:17:31 436.925 FM
ITAMSAT 1 25 Jul 15:11:11 15:16:23 71° 258° (WSW) 15:21:36 435.822 SSB
AO-Echo 25 Jul 15:18:18 15:23:26 58° 259° (W) 15:28:41 ?
RS-15 25 Jul 15:18:29 15:29:34 63° 300° (WNW) 15:40:25 29.354 - 29.394 USB, Beacon 29.352 USB
Gurwin Techsat 1B 25 Jul 15:29:31 15:34:46 65° 75° (ENE) 15:40:01 435.225 FM
AO-27 25 Jul 15:29:37 15:34:35 44° 260° (W) 15:39:34 436.795 MHz FM
Uribyol 2 25 Jul 15:32:05 15:36:56 40° 261° (W) 15:41:48 436.500 FM
AO-7 25 Jul 15:55:40 16:02:31 29° 63° (ENE) 16:09:21 29.400 - 29.500 MHz
KITSAT 1 25 Jul 16:08:56 16:15:32 27° 53° (NE) 16:22:04 435.175 FM
OPAL 25 Jul 16:19:34 16:22:02 14° 96° (E) 16:24:31 ?
JAS-1B 25 Jul 16:30:30 16:38:03 41° 264° (W) 16:46:45 435.800 - 435.900 CW/SSB
UOSAT-12 25 Jul 16:46:41 16:50:12 21° 306° (NW) 16:53:46 437.025 FM, 437.400 FM
TMSAT-1 25 Jul 16:48:25 16:52:52 28° 263° (W) 16:57:21 436.925 FM
Uosat F 25 Jul 17:12:05 17:17:06 75° 258° (WSW) 17:22:10 435.120 FM
Oscar 10/S400 25 Jul 17:13:33 17:32:43 19° 155° (SSE) 17:45:29 145.825 - 145.975 CW/USB, Beacon 145.810 USB
Gurwin Techsat 1B 25 Jul 17:13:52 17:15:02 11° 267° (W) 17:16:13 435.225 FM
JAS-2 25 Jul 17:22:32 17:25:47 13° 62° (ENE) 17:28:59 435.800 - 435.900 CW/SSB, 435.910 FM
Saudisat 1A 25 Jul 17:27:27 17:29:02 12° 51° (NE) 17:30:36 436.775 MHz
RS-15 25 Jul 17:39:09 17:44:33 14° 325° (NW) 17:49:57 29.354 - 29.394 USB, Beacon 29.352 USB
AO-7 25 Jul 17:46:46 17:54:48 52° 257° (WSW) 18:02:55 29.400 - 29.500 MHz
OPAL 25 Jul 17:56:10 18:01:04 51° 288° (WNW) 18:06:01 ?
KITSAT 1 25 Jul 18:03:24 18:11:15 57° 250° (WSW) 18:19:03 435.175 FM
Hamsat 25 Jul 18:53:31 18:57:41 87° 258° (WSW) 19:01:52 145.90 MHz
JAS-2 25 Jul 19:01:53 19:09:44 82° 76° (ENE) 19:17:24 435.800 - 435.900 CW/SSB, 435.910 FM
Saudisat 1A 25 Jul 19:04:37 19:08:55 57° 246° (WSW) 19:13:12 436.775 MHz
STRAND 1 25 Jul 20:13:04 20:18:11 85° 103° (ESE) 20:23:16 ?
SO-67 25 Jul 20:19:28 20:22:48 46° 261° (W) 20:26:09 435.3500 MHz FM
HO-68 25 Jul 20:41:49 20:47:22 25° 65° (ENE) 20:52:55 435.675 MHz FM
JAS-2 25 Jul 20:50:50 20:55:08 16° 268° (W) 20:59:25 435.800 - 435.900 CW/SSB, 435.910 FM
UKube-1 25 Jul 20:55:07 20:56:03 11° 67° (ENE) 20:56:59 145.840 MHz, 145.915 MHz
Oscar 11 25 Jul 21:42:10 21:45:05 18° 70° (ENE) 21:48:00 145.825 FM, Beacon 2401.500 USB
MaSat-1 25 Jul 21:43:31 21:46:12 20° 101° (E) 21:49:12 437.345 MHz
RS-15 25 Jul 22:16:35 22:24:15 20° 42° (NE) 22:32:01 29.354 - 29.394 USB, Beacon 29.352 USB
UKube-1 25 Jul 22:27:31 22:31:45 50° 259° (W) 22:36:00 145.840 MHz, 145.915 MHz
HO-68 25 Jul 22:27:42 22:34:36 50° 259° (WSW) 22:41:32 435.675 MHz FM
SO-50 25 Jul 23:00:18 23:04:39 34° 58° (ENE) 23:09:02 436.795 FM
Lituanica SAT-1 25 Jul 23:13:31 23:15:31 61° 313° (NW) 23:17:33 437.275 MHz beacon
Oscar 11 25 Jul 23:17:21 23:21:01 28° 263° (W) 23:24:43 145.825 FM, Beacon 2401.500 USB
MaSat-1 25 Jul 23:20:21 23:23:19 21° 301° (WNW) 23:26:41 437.345 MHz
FUNcube-1 25 Jul 23:28:01 23:32:24 65° 259° (W) 23:36:42 145.950 - 145.970 MHz USB
ISS 25 Jul 23:42:04 23:44:01 15° 126° (SE) 23:45:59 145.800 FM
RS-15 26 Jul 00:27:05 00:38:16 84° 64° (ENE) 00:49:55 29.354 - 29.394 USB, Beacon 29.352 USB
Sapphire 26 Jul 00:33:13 00:34:41 11° 103° (ESE) 00:36:09 437.095 MHz 1200 baud AX-25 AFSK
SO-50 26 Jul 00:41:29 00:44:57 20° 251° (WSW) 00:48:27 436.795 FM
PCSat 26 Jul 01:03:38 01:08:09 28° 107° (ESE) 01:12:41 145.825 MHz
ISS 26 Jul 01:17:27 01:20:30 32° 318° (NW) 01:23:33 145.800 FM
UOSAT-12 26 Jul 01:20:43 01:25:24 65° 62° (ENE) 01:30:00 437.025 FM, 437.400 FM
Oscar 16 26 Jul 01:41:16 01:41:59 10° 93° (E) 01:42:42 437.025 USB, Beacon 2401.1428
Sapphire 26 Jul 02:12:06 02:17:27 67° 295° (WNW) 02:22:50 437.095 MHz 1200 baud AX-25 AFSK
AO-40 26 Jul 02:32:01 04:18:26 35° 220° (SW) 08:39:51 Beacon 2401.320
JAS-1B 26 Jul 02:36:13 02:41:15 16° 88° (E) 02:45:51 435.800 - 435.900 CW/SSB
RS-15 26 Jul 02:42:24 02:49:22 19° 258° (WSW) 02:56:32 29.354 - 29.394 USB, Beacon 29.352 USB
PCSat 26 Jul 02:46:44 02:51:24 29° 301° (WNW) 02:56:06 145.825 MHz
Oscar 19 26 Jul 02:48:45 02:53:51 61° 101° (E) 02:58:58 437.125 CW, 437.150 USB
Oscar 16 26 Jul 03:16:32 03:21:38 65° 285° (WNW) 03:26:44 437.025 USB, Beacon 2401.1428
OPAL 26 Jul 03:29:46 03:31:50 13° 64° (ENE) 03:33:54 ?
ITAMSAT 1 26 Jul 03:30:17 03:35:27 70° 102° (ESE) 03:40:35 435.822 SSB
TMSAT-1 26 Jul 03:31:15 03:34:44 18° 95° (E) 03:38:11 436.925 FM
AO-Echo 26 Jul 03:32:03 03:37:07 78° 102° (ESE) 03:41:59 ?
AO-27 26 Jul 03:48:36 03:53:46 74° 285° (WNW) 03:58:55 436.795 MHz FM
Uribyol 2 26 Jul 03:50:40 03:55:47 67° 285° (WNW) 04:00:52 436.500 FM
Gurwin Techsat 1B 26 Jul 03:52:06 03:57:09 43° 99° (E) 04:02:09 435.225 FM
AO-7 26 Jul 04:07:59 04:09:38 11° 93° (E) 04:11:16 29.400 - 29.500 MHz
JAS-1B 26 Jul 04:23:27 04:32:48 82° 286° (WNW) 04:40:41 435.800 - 435.900 CW/SSB
Oscar 19 26 Jul 04:30:37 04:32:37 12° 294° (WNW) 04:34:37 437.125 CW, 437.150 USB
OPAL 26 Jul 05:05:21 05:10:12 56° 257° (WSW) 05:15:03 ?
TMSAT-1 26 Jul 05:09:47 05:14:44 41° 287° (WNW) 05:19:39 436.925 FM
ITAMSAT 1 26 Jul 05:13:17 05:14:17 11° 295° (WNW) 05:15:17 435.822 SSB
PANSAT 26 Jul 05:24:16 05:26:58 18° 157° (SSE) 05:29:41 not established
Uosat F 26 Jul 05:26:01 05:30:57 56° 101° (E) 05:35:50 435.120 FM
Gurwin Techsat 1B 26 Jul 05:33:15 05:36:43 18° 292° (WNW) 05:40:10 435.225 FM
AO-7 26 Jul 05:54:52 06:03:13 82° 106° (ESE) 06:11:31 29.400 - 29.500 MHz
Oscar 10/S400 26 Jul 06:06:15 07:36:54 46° 246° (WSW) 13:00:30 145.825 - 145.975 CW/USB, Beacon 145.810 USB
JAS-1B 26 Jul 06:16:56 06:21:34 15° 304° (NW) 06:25:56 435.800 - 435.900 CW/SSB
JAS-2 26 Jul 06:23:50 06:25:03 11° 90° (E) 06:26:15 435.800 - 435.900 CW/SSB, 435.910 FM
KITSAT 1 26 Jul 06:29:49 06:37:11 40° 108° (ESE) 06:44:33 435.175 FM
Hamsat 26 Jul 06:45:40 06:49:17 26° 97° (E) 06:52:54 145.90 MHz
Lituanica SAT-1 26 Jul 07:01:58 07:03:48 29° 44° (NE) 07:05:37 437.275 MHz beacon
PANSAT 26 Jul 07:03:04 07:06:49 49° 168° (SSE) 07:10:34 not established
Uosat F 26 Jul 07:07:08 07:09:11 13° 294° (WNW) 07:11:13 435.120 FM
STRAND 1 26 Jul 07:22:53 07:27:59 66° 75° (ENE) 07:33:05 ?
Saudisat 1A 26 Jul 07:29:26 07:30:28 11° 107° (ESE) 07:31:30 436.775 MHz
MaSat-1 26 Jul 07:44:04 07:48:08 22° 60° (ENE) 07:52:00 437.345 MHz
AO-7 26 Jul 07:49:57 07:55:00 18° 302° (WNW) 08:00:03 29.400 - 29.500 MHz
SO-67 26 Jul 07:50:04 07:52:26 17° 96° (E) 07:54:47 435.3500 MHz FM
ISS 26 Jul 07:51:28 07:53:36 16° 37° (NE) 07:55:43 145.800 FM
JAS-2 26 Jul 08:04:57 08:10:46 64° 286° (WNW) 08:16:02 435.800 - 435.900 CW/SSB, 435.910 FM
Hamsat 26 Jul 08:21:59 08:25:02 19° 289° (WNW) 08:28:06 145.90 MHz
KITSAT 1 26 Jul 08:25:09 08:32:29 37° 303° (WNW) 08:39:51 435.175 FM
PANSAT 26 Jul 08:43:03 08:46:54 74° 180° (S) 08:50:45 not established
Saudisat 1A 26 Jul 09:05:15 09:09:33 51° 299° (WNW) 09:13:52 436.775 MHz
MaSat-1 26 Jul 09:20:48 09:25:34 36° 255° (WSW) 09:29:59 437.345 MHz
SO-67 26 Jul 09:23:01 09:25:20 17° 288° (WNW) 09:27:39 435.3500 MHz FM
ISS 26 Jul 09:27:17 09:30:25 37° 230° (SW) 09:33:32 145.800 FM
HO-68 26 Jul 10:01:56 10:08:42 45° 101° (E) 10:15:26 435.675 MHz FM
UKube-1 26 Jul 10:21:51 10:26:00 42° 100° (E) 10:30:06 145.840 MHz, 145.915 MHz
PANSAT 26 Jul 10:23:16 10:26:59 48° 193° (SSW) 10:30:42 not established
Sapphire 26 Jul 11:06:39 11:11:16 28° 59° (ENE) 11:15:51 437.095 MHz 1200 baud AX-25 AFSK
Oscar 11 26 Jul 11:10:12 11:14:33 83° 102° (ESE) 11:18:53 145.825 FM, Beacon 2401.500 USB
FUNcube-1 26 Jul 11:23:24 11:27:15 36° 99° (E) 11:31:08 145.950 - 145.970 MHz USB
PCSat 26 Jul 11:39:50 11:45:13 62° 64° (ENE) 11:50:33 145.825 MHz
HO-68 26 Jul 11:50:16 11:56:02 28° 294° (WNW) 12:01:49 435.675 MHz FM
UKube-1 26 Jul 12:00:00 12:01:46 12° 292° (WNW) 12:03:32 145.840 MHz, 145.915 MHz
PANSAT 26 Jul 12:04:12 12:06:49 18° 204° (SSW) 12:09:26 not established
RS-15 26 Jul 12:35:23 12:42:26 19° 102° (ESE) 12:49:18 29.354 - 29.394 USB, Beacon 29.352 USB
Sapphire 26 Jul 12:49:56 12:54:35 30° 253° (WSW) 12:59:12 437.095 MHz 1200 baud AX-25 AFSK
